Terug naar catalogus

CZ-8 R/B

ActiefCommunicatiePO
NORAD 68654·PAYLOAD·🇨🇳 China

Gelanceerd Apr 7, 2026 vanaf Wenchang Space Launch Site

Loading…

Volgende Passages (komende 24 uur)

TLE

VersSource: Space-Track

Epoch: Sep 14, 2026, 13:32 UTC

1 68654U 26075U   26257.56403574  .00000108  00000-0  28893-4 0  9998
2 68654  88.9862 309.7438 0069169 305.1210  54.3521 14.40093927 23014

Volg CZ-8 R/B in realtime met AllMySat

Download on the App Store